Temperature
26 23 22 23 24 24 26 26 26 27 27 26 24 21 19 19 18 17 16 15 15 16 17 18 18 18 18 18 18 17 16 16 16 17 17 18 18 19 19 19 19 19 19 18
24 23 25 26 27 27 26 26 25 26 27 26 22 19 18 18 17 16 15 14 14 15 16 17 17 17 17 17 17 17 17 17 17 17 18 18 19 19 19 19 19 19 19 18
25 25 27 27 27 27 26 26 26 26 25 24 23 19 18 18 17 16 15 14 14 14 15 15 16 16 17 16 16 16 16 16 16 17 18 18 19 19 19 19 19 19 19 19
24 25 26 26 26 27 25 26 27 26 24 21 22 20 18 17 17 17 15 14 14 14 15 15 15 15 15 15 15 15 16 16 17 17 18 18 19 19 19 19 19 19 18 18
23 24 24 25 26 27 26 26 25 25 23 21 20 19 18 17 16 16 15 15 15 15 15 15 15 15 16 16 16 15 15 16 17 17 18 18 18 18 18 18 18 18 18 18
24 25 25 25 26 27 27 24 22 20 19 20 20 18 17 16 16 16 15 15 15 15 15 15 15 15 15 16 16 16 16 16 16 16 16 16 17 17 17 17 17 17 17 17
22 24 25 26 26 26 24 21 19 20 18 18 18 17 16 16 16 16 16 16 16 16 16 16 16 16 15 15 15 15 15 15 15 15 15 15 15 15 15 15 15 15 16 16
21 22 25 25 25 24 25 22 20 20 19 18 18 17 16 17 16 17 17 16 16 16 16 16 16 15 15 15 15 15 14 14 14 14 14 14 14 14 14 14 13 14 14 14
20 21 24 26 26 26 25 22 21 19 20 18 17 16 16 16 16 16 16 16 16 16 16 16 16 16 15 15 15 14 14 14 13 13 13 13 13 13 13 13 13 13 13 13
21 21 23 25 25 24 24 22 19 19 20 19 18 17 16 15 15 15 15 16 16 16 16 16 16 16 16 15 15 14 14 13 13 13 13 13 12 12 12 12 12 12 12 12
22 21 22 22 24 24 23 22 20 18 18 19 18 17 16 15 15 15 15 16 16 16 16 16 16 15 15 15 14 14 14 13 13 13 13 12 12 12 12 12 11 11 11 11
22 19 19 21 22 23 22 21 20 19 19 17 17 16 16 15 15 15 16 16 16 16 16 15 14 14 14 14 14 14 13 13 13 13 12 12 12 12 12 12 11 11 11 11
22 19 18 19 20 21 21 21 19 17 16 16 16 16 16 15 15 16 16 15 15 15 14 14 14 14 14 13 13 13 13 13 13 12 12 12 12 11 11 11 11 11 11 11
21 18 18 19 19 20 20 20 19 16 15 16 16 16 15 14 14 14 15 15 15 14 14 14 13 13 13 13 13 13 13 12 12 12 12 12 12 11 11 11 11 10 10 10
18 18 19 20 20 20 19 20 19 17 17 16 16 15 14 14 14 14 14 14 14 14 13 13 13 13 13 13 13 12 12 12 12 12 12 11 11 11 11 10 10 10 10 10
17 18 18 19 20 19 19 19 18 18 17 16 15 14 14 14 14 14 14 14 14 14 14 13 13 13 13 13 12 12 12 12 12 11 11 11 11 11 10 10 10 10 9 9
18 18 18 18 20 19 16 17 17 17 15 14 13 13 12 12 13 13 14 14 14 13 13 13 13 12 12 12 11 11 11 11 11 11 11 11 11 10 10 10 10 9 9 9
19 17 16 17 18 18 17 18 18 16 14 15 14 13 13 13 14 14 14 14 13 13 12 12 11 11 11 10 10 10 10 10 10 10 10 10 10 10 9 9 9 9 9 8
18 18 16 15 17 17 18 17 17 16 14 14 13 12 14 14 13 13 13 13 12 12 11 11 10 9 9 9 8 8 8 7 7 8 8 8 8 8 8 8 8 8 8 8
16 16 16 16 17 17 16 17 18 16 14 14 14 13 13 12 10 10 12 12 11 10 10 9 8 8 7 7 6 5 5 5 5 5 5 5 6 6 7 7 7 7 7 7
17 15 15 16 16 16 16 17 15 13 12 14 14 14 13 11 11 12 12 11 10 9 8 8 7 6 5 5 4 4 4 4 4 3 4 4 4 4 5 5 5 6 6 6
16 15 15 14 15 15 16 15 14 13 15 14 14 13 13 12 12 11 10 9 9 8 7 6 5 5 4 4 4 3 3 3 3 3 3 3 3 3 3 4 4 4 5 5
16 15 14 14 14 15 16 16 15 15 15 14 13 13 12 12 11 10 9 8 8 7 6 5 5 4 4 4 4 3 4 3 3 3 3 3 3 3 3 3 3 3 4 4
16 16 15 15 15 16 16 16 15 15 14 14 13 12 12 11 10 9 8 8 7 6 5 5 4 4 4 4 4 4 4 4 3 3 3 3 3 3 3 3 3 3 4 4
16 16 15 15 16 16 16 15 15 14 14 13 13 12 11 10 9 8 8 7 6 5 5 4 4 4 4 4 4 4 4 4 4 4 3 3 3 3 3 4 4 4 4 4
16 15 14 13 15 14 15 15 14 14 13 13 12 11 10 9 9 8 7 6 6 5 5 4 4 4 4 4 5 5 4 4 4 4 4 3 3 3 3 4 4 4 4 4
Wind_Speed
2 3 7 12 9 9 6 5 6 6 8 9 11 15 19 20 21 18 14 11 9 8 5 6 9 10 7 8 10 6 4 7 8 7 6 4 4 3 4 5 7 8 8 9
1 6 14 12 8 6 6 6 6 6 8 8 12 17 16 20 18 15 13 12 9 6 5 8 10 11 10 9 6 4 5 7 9 8 5 4 3 3 4 5 6 7 7 8
2 3 8 8 7 6 6 6 6 5 5 8 7 8 12 12 15 16 15 13 12 10 10 12 14 15 14 12 8 5 3 4 5 6 3 1 1 2 1 2 4 6 7 7
5 8 12 12 8 3 6 8 6 4 4 4 4 2 5 7 14 16 15 13 12 10 10 11 13 14 13 11 10 8 7 7 7 7 6 4 2 1 1 2 3 5 6 7
5 6 8 8 7 6 6 6 4 3 1 1 4 5 3 4 10 12 11 10 8 7 7 9 9 9 9 8 7 6 6 7 7 8 9 8 7 5 4 4 4 3 3 4
4 4 4 5 8 5 2 7 8 7 5 3 3 5 3 3 3 4 5 4 4 4 5 6 6 7 6 5 4 4 5 5 5 6 7 7 7 7 7 7 7 6 4 3
7 7 4 3 6 7 7 7 6 7 6 3 1 6 2 4 5 5 3 1 2 2 3 4 4 3 2 1 1 2 3 4 4 5 5 4 4 5 5 5 5 5 4 4
2 6 5 5 5 5 1 7 5 3 4 3 3 4 3 3 4 4 3 2 1 3 3 3 2 0 2 3 3 2 2 0 2 3 3 3 4 3 2 3 3 4 4 4
5 6 5 5 5 2 1 1 6 7 1 2 1 4 2 5 4 3 2 2 3 4 4 5 4 3 2 3 3 4 3 3 3 2 2 1 2 3 4 4 3 3 4 5
7 5 6 4 5 5 2 1 6 4 2 2 1 3 5 7 4 1 0 1 3 4 5 6 6 6 6 4 3 3 3 5 6 6 6 5 5 5 5 4 6 5 5 5
3 1 7 7 4 5 7 6 5 2 3 3 2 3 3 5 4 3 3 4 5 7 8 9 9 9 8 6 5 5 5 5 6 7 7 7 7 7 6 6 7 6 6 6
4 4 3 5 5 4 6 5 2 2 4 3 2 2 3 6 5 3 4 6 8 9 10 9 10 10 9 8 8 8 8 8 9 8 8 9 9 8 8 8 9 8 8 7
4 6 5 9 10 9 8 8 6 5 5 4 3 5 2 1 2 4 6 9 10 10 9 8 8 8 8 9 10 10 10 10 10 10 9 10 10 10 10 10 9 8 8 9
5 5 4 3 7 2 6 9 10 8 5 3 1 4 5 6 7 8 9 10 11 9 7 7 8 8 9 9 10 11 11 11 11 11 11 11 12 12 11 10 9 9 9 9
6 4 4 3 8 11 10 11 11 10 6 2 4 2 4 7 7 8 9 11 11 8 9 11 10 10 10 10 10 10 11 11 11 11 12 13 12 11 10 10 9 9 9 10
5 5 6 6 10 12 12 11 9 6 5 4 3 2 5 7 7 9 11 13 11 11 13 14 13 12 12 12 12 12 12 12 12 12 13 12 11 10 10 10 9 8 8 8
3 4 5 4 4 2 6 6 6 4 5 5 4 6 9 8 10 11 12 11 12 15 17 17 15 14 13 13 13 13 13 13 12 12 13 12 11 10 10 10 9 8 7 7
4 3 3 2 6 4 3 1 5 4 5 4 2 7 8 10 11 9 11 12 15 16 16 15 14 13 13 12 13 13 13 13 12 12 12 11 10 11 10 9 9 8 6 6
4 6 4 3 2 2 0 4 4 2 4 4 7 10 11 10 8 7 10 11 14 15 15 13 13 14 12 12 13 14 15 14 14 13 11 10 9 9 9 9 9 7 6 7
8 7 6 4 2 3 3 6 6 2 2 4 8 9 10 10 10 8 10 12 12 12 11 11 11 12 12 13 13 14 15 15 15 14 13 11 9 8 8 8 8 7 6 8
5 6 5 3 2 2 4 5 6 5 7 9 7 8 8 7 8 12 15 12 11 11 11 11 12 12 14 14 13 14 15 16 15 14 13 11 10 10 9 8 7 7 7 7
4 3 2 3 3 5 4 4 3 5 7 7 6 7 8 9 11 11 12 12 12 12 12 13 14 15 15 14 14 16 16 16 15 14 14 13 11 12 12 8 7 7 7 7
4 7 6 6 6 6 2 4 5 5 4 5 6 8 8 10 10 11 10 11 12 13 15 15 17 19 17 14 14 17 17 15 15 14 14 13 13 11 10 9 9 8 7 7
3 4 3 1 3 5 3 0 3 3 3 6 6 8 9 9 10 11 11 12 14 14 16 18 19 19 18 16 15 15 16 15 14 14 13 11 11 10 10 8 8 7 7 8
7 5 3 1 1 1 4 5 4 4 6 7 8 7 9 9 9 9 11 13 15 16 16 16 17 18 19 18 17 16 15 14 14 13 12 10 9 9 9 8 7 7 7 8
2 6 6 6 7 5 5 5 3 5 7 7 8 9 8 7 9 10 12 13 15 17 17 17 17 17 18 17 17 17 15 14 14 12 10 8 7 7 6 5 5 7 9 11
Wind_Direction
247 133 248 253 230 220 267 317 325 320 341 33 53 52 42 49 64 65 60 60 67 80 91 80 79 83 80 88 96 112 203 245 257 257 260 255 242 218 191 190 184 180 175 168
320 245 246 255 288 320 338 345 331 322 351 31 63 64 55 53 57 53 42 27 13 10 30 51 59 62 58 66 88 141 214 238 247 250 245 234 224 218 200 195 196 192 177 169
204 330 332 328 323 341 333 312 307 315 6 26 72 54 41 47 55 51 39 22 8 13 30 43 48 48 48 45 35 36 27 357 325 300 283 295 14 21 60 221 224 214 190 176
4 339 350 340 315 298 292 284 300 320 6 341 50 65 35 30 43 41 33 20 12 13 34 49 53 52 52 50 44 35 31 37 27 12 11 19 22 330 314 276 257 247 216 187
311 322 334 317 294 306 269 295 329 324 317 5 27 93 11 12 38 36 29 21 6 357 29 51 59 63 62 59 57 47 33 32 32 37 34 33 30 13 360 1 355 317 269 226
276 271 242 259 292 292 339 25 21 36 53 11 352 102 15 26 67 55 34 17 344 349 31 52 61 67 61 49 42 35 36 30 22 33 43 44 34 19 14 8 2 352 338 322
334 320 310 297 329 328 52 61 20 357 358 289 19 96 126 138 144 135 142 220 275 320 23 41 51 65 90 111 99 62 48 21 10 24 30 31 28 17 10 352 348 348 341 333
328 319 325 320 281 250 322 119 136 233 254 289 15 92 157 174 177 162 152 177 317 341 355 7 359 277 236 222 211 200 174 244 351 21 15 10 8 356 335 329 323 320 308 301
193 264 285 286 286 188 275 236 179 162 245 95 132 115 172 220 199 153 108 50 6 350 352 347 340 329 296 267 249 233 218 223 225 213 211 280 318 318 308 311 313 305 303 309
173 238 288 312 8 11 140 158 60 66 38 347 272 207 191 194 193 152 140 310 313 315 310 303 294 280 265 238 217 208 209 222 223 218 219 222 236 249 263 284 296 298 301 312
137 142 320 354 18 352 355 14 51 76 151 143 307 286 225 191 200 224 255 259 271 278 278 274 272 269 260 248 240 243 241 237 238 235 234 238 243 242 244 253 265 272 279 289
31 90 342 313 323 20 39 17 53 90 342 66 107 292 229 188 214 237 291 299 297 291 288 291 298 298 290 276 268 262 258 253 250 245 242 245 249 246 244 248 253 254 260 267
66 77 25 348 349 12 38 14 31 102 82 58 55 310 288 207 327 331 325 319 310 305 307 314 317 315 300 283 272 264 259 254 253 250 247 249 252 249 246 248 251 250 250 256
95 79 130 216 271 347 58 46 44 66 68 53 23 310 10 5 347 336 327 316 309 312 317 314 307 299 287 277 271 267 263 257 254 250 246 245 246 245 244 245 247 249 247 249
76 43 344 9 93 89 75 60 60 67 74 85 309 78 9 330 317 309 306 308 313 311 308 302 294 284 276 271 267 260 256 254 251 247 243 240 239 237 235 236 240 245 247 249
68 48 32 59 107 93 70 51 44 41 32 11 46 67 312 306 313 314 314 317 310 303 305 301 294 286 278 272 268 263 258 255 249 246 243 237 230 226 223 222 225 230 240 248
57 60 39 338 272 75 32 31 52 34 35 67 40 306 304 316 318 310 312 310 300 303 306 305 299 289 285 283 280 277 272 266 258 250 245 236 227 222 219 214 209 215 230 241
117 87 92 4 23 36 225 84 73 98 98 59 337 295 300 302 299 293 296 300 304 307 308 306 303 300 298 295 298 296 294 288 278 268 258 248 236 230 220 210 209 217 223 234
113 119 83 64 352 189 266 7 353 278 192 51 356 334 325 311 308 289 282 292 297 302 306 310 312 313 315 317 319 318 313 307 300 293 284 274 259 242 225 215 215 217 221 234
50 80 88 46 344 250 276 317 309 349 290 335 345 325 318 334 333 305 303 306 307 312 317 322 325 324 323 322 323 319 314 310 305 302 300 296 286 264 241 227 221 219 221 232
27 39 62 39 312 269 307 325 36 55 284 299 308 312 319 315 287 296 312 319 322 324 323 323 320 319 318 318 316 311 307 302 299 295 289 288 289 279 263 245 233 229 230 234
124 103 88 77 355 276 316 44 70 249 260 287 299 305 303 297 295 304 315 322 326 323 320 322 323 323 321 318 314 310 306 303 301 297 292 288 283 279 278 260 245 232 227 232
149 173 178 177 210 223 176 151 205 229 278 296 300 303 307 312 312 319 324 326 323 322 326 329 328 326 323 320 314 311 308 306 303 299 294 290 286 280 274 265 255 243 231 230
238 164 123 136 172 181 156 130 333 349 330 316 314 315 325 323 323 328 327 325 327 331 332 333 331 328 327 324 318 311 308 306 301 296 292 287 283 279 273 265 255 242 228 225
192 146 130 220 233 205 328 331 343 12 358 343 335 329 331 333 331 330 326 327 332 334 332 332 330 327 325 323 320 315 312 309 305 298 291 286 279 277 277 267 255 241 229 218
173 150 159 216 223 198 257 287 31 27 354 342 342 338 335 336 331 330 327 331 333 333 333 331 329 327 325 324 322 320 318 316 312 308 300 292 284 280 276 274 277 255 241 232
Height
1498 1504 1507 1499 1495 1496 1494 1495 1495 1485 1474 1477 1486 1494 1495 1492 1491 1496 1498 1497 1496 1494 1493 1491 1488 1486 1487 1482 1481 1482 1488 1488 1491 1493 1495 1497 1498 1499 1500 1501 1501 1501 1501 1501
1502 1505 1493 1488 1486 1487 1489 1494 1494 1485 1477 1480 1492 1502 1501 1498 1499 1502 1502 1503 1502 1499 1495 1491 1488 1485 1485 1485 1485 1483 1488 1490 1492 1494 1496 1498 1498 1498 1499 1500 1499 1499 1499 1499
1501 1498 1489 1487 1488 1489 1490 1492 1491 1488 1483 1484 1489 1506 1506 1505 1503 1502 1504 1505 1504 1501 1496 1492 1488 1487 1488 1489 1490 1487 1490 1493 1495 1496 1497 1496 1496 1497 1497 1497 1498 1498 1497 1497
1499 1493 1490 1490 1489 1487 1495 1483 1482 1483 1492 1503 1498 1517 1515 1511 1508 1506 1507 1508 1507 1505 1499 1495 1493 1492 1492 1493 1493 1493 1493 1493 1494 1495 1494 1493 1494 1494 1494 1494 1495 1495 1495 1495
1501 1494 1494 1494 1488 1484 1486 1479 1481 1484 1491 1503 1505 1518 1523 1514 1515 1513 1513 1511 1510 1509 1503 1499 1497 1496 1497 1497 1497 1497 1496 1494 1494 1493 1492 1492 1491 1491 1490 1490 1490 1491 1491 1491
1495 1490 1489 1488 1482 1480 1478 1483 1487 1496 1505 1518 1514 1522 1529 1521 1518 1514 1513 1513 1513 1511 1506 1502 1500 1499 1499 1499 1499 1498 1497 1496 1494 1492 1491 1490 1489 1488 1487 1486 1486 1486 1486 1485
1502 1491 1485 1484 1486 1482 1483 1503 1522 1524 1531 1529 1516 1522 1528 1519 1515 1512 1513 1514 1513 1511 1507 1504 1502 1502 1501 1501 1500 1499 1497 1495 1493 1491 1490 1488 1487 1485 1484 1482 1481 1480 1480 1479
1516 1510 1491 1486 1489 1492 1487 1499 1525 1534 1534 1529 1520 1527 1527 1519 1517 1514 1514 1514 1513 1512 1509 1507 1505 1504 1502 1501 1500 1498 1497 1495 1493 1492 1490 1487 1485 1483 1481 1479 1477 1476 1474 1473
1518 1513 1492 1486 1482 1483 1490 1495 1497 1515 1517 1530 1529 1528 1526 1520 1518 1516 1516 1515 1514 1512 1510 1508 1506 1504 1502 1500 1498 1496 1494 1492 1491 1489 1487 1485 1483 1481 1478 1476 1474 1472 1470 1468
1505 1512 1496 1487 1484 1484 1486 1490 1504 1515 1525 1533 1530 1528 1529 1523 1520 1519 1518 1517 1515 1513 1509 1506 1503 1501 1498 1496 1493 1491 1489 1487 1486 1484 1482 1480 1478 1476 1473 1471 1469 1467 1465 1463
1499 1509 1504 1495 1495 1496 1492 1495 1503 1514 1518 1529 1534 1533 1520 1521 1521 1520 1518 1516 1514 1510 1507 1503 1500 1496 1492 1489 1487 1485 1484 1482 1480 1478 1476 1474 1472 1470 1468 1466 1464 1462 1460 1458
1499 1511 1516 1505 1494 1492 1494 1499 1504 1519 1521 1524 1533 1535 1517 1519 1519 1519 1518 1516 1513 1509 1505 1501 1497 1492 1488 1485 1483 1480 1478 1476 1474 1472 1470 1468 1466 1464 1462 1460 1459 1457 1455 1454
1501 1515 1528 1522 1513 1503 1504 1503 1504 1512 1523 1529 1537 1535 1517 1519 1520 1519 1518 1515 1511 1506 1502 1498 1494 1489 1485 1482 1478 1475 1472 1468 1466 1464 1461 1459 1458 1456 1454 1453 1452 1451 1450 1448
1499 1516 1526 1533 1526 1512 1515 1511 1509 1516 1532 1534 1531 1529 1524 1522 1521 1518 1516 1512 1507 1502 1498 1494 1489 1485 1480 1476 1472 1468 1464 1461 1458 1455 1453 1450 1449 1447 1446 1445 1444 1443 1442 1441
1503 1518 1515 1514 1511 1513 1516 1515 1515 1520 1523 1530 1528 1528 1528 1524 1521 1517 1512 1507 1501 1496 1492 1487 1482 1477 1473 1468 1464 1460 1456 1453 1449 1446 1443 1441 1439 1438 1437 1436 1435 1434 1434 1433
1508 1516 1518 1521 1516 1515 1520 1520 1520 1520 1522 1524 1526 1529 1525 1521 1517 1512 1507 1501 1495 1490 1485 1480 1474 1469 1464 1459 1454 1449 1445 1442 1438 1435 1432 1430 1429 1428 1427 1426 1426 1426 1425 1425
1512 1517 1523 1527 1517 1517 1532 1527 1525 1526 1526 1528 1533 1531 1523 1519 1513 1508 1503 1498 1492 1486 1480 1474 1468 1462 1456 1451 1445 1440 1435 1431 1427 1424 1421 1419 1418 1417 1416 1416 1416 1417 1417 1416
1511 1518 1528 1530 1529 1537 1533 1521 1521 1525 1528 1527 1526 1524 1519 1515 1510 1506 1501 1495 1488 1481 1475 1468 1462 1455 1449 1443 1437 1431 1425 1420 1416 1412 1409 1408 1406 1405 1405 1405 1406 1406 1407 1407
1507 1516 1529 1537 1537 1533 1527 1523 1521 1523 1526 1525 1522 1518 1514 1509 1504 1501 1497 1492 1485 1478 1470 1463 1457 1450 1442 1436 1429 1422 1415 1410 1405 1401 1398 1396 1395 1394 1394 1394 1395 1396 1397 1397
1512 1515 1529 1535 1537 1538 1533 1523 1518 1519 1525 1521 1518 1515 1510 1504 1502 1495 1490 1485 1478 1472 1465 1457 1450 1443 1435 1428 1420 1413 1406 1401 1395 1391 1388 1385 1384 1383 1382 1383 1384 1385 1386 1387
1523 1528 1534 1537 1538 1535 1527 1522 1521 1533 1533 1520 1517 1513 1509 1505 1501 1492 1485 1479 1473 1466 1459 1451 1443 1435 1427 1419 1412 1404 1397 1391 1386 1381 1377 1374 1373 1372 1372 1372 1373 1374 1376 1377
1528 1534 1537 1539 1542 1540 1524 1523 1527 1529 1521 1518 1514 1510 1506 1501 1495 1488 1482 1475 1468 1460 1452 1443 1435 1427 1420 1412 1404 1396 1389 1383 1377 1372 1368 1365 1363 1362 1361 1361 1362 1364 1365 1367
1523 1525 1529 1531 1533 1525 1523 1523 1523 1521 1518 1515 1511 1507 1502 1495 1489 1483 1477 1470 1463 1454 1446 1438 1430 1421 1413 1406 1399 1390 1383 1377 1371 1365 1361 1357 1355 1353 1352 1351 1351 1353 1355 1358
1519 1517 1521 1524 1523 1522 1522 1521 1519 1517 1515 1511 1508 1503 1498 1492 1486 1480 1473 1465 1457 1449 1441 1433 1424 1415 1407 1400 1393 1386 1378 1371 1365 1359 1355 1351 1348 1346 1344 1344 1343 1344 1346 1349
1514 1516 1520 1522 1520 1520 1519 1518 1516 1513 1511 1508 1504 1500 1495 1489 1483 1477 1469 1461 1453 1445 1437 1429 1421 1412 1404 1397 1389 1382 1375 1367 1360 1354 1349 1346 1343 1341 1339 1338 1338 1339 1340 1343
1512 1515 1519 1522 1517 1517 1516 1515 1513 1510 1508 1504 1501 1496 1491 1486 1480 1473 1465 1458 1450 1442 1434 1425 1418 1410 1402 1394 1387 1379 1372 1364 1357 1350 1345 1342 1339 1337 1336 1335 1335 1336 1337 1339